Weather History for Perry, IA

Change the Weather History Date:

Wednesday, June 12, 2013

  Actual Average Record
Temperature  
Mean Temperature 77 °F -  
Max Temperature 89 °F 80 °F 97 °F (1952)
Min Temperature 65 °F 58 °F 45 °F (1974)
Cooling Degree Days 12    
Growing Degree Days 27 (Base 50)    
Moisture  
Dew Point 65 °F    
Average Humidity 68    
Maximum Humidity 86    
Minimum Humidity 46    
Precipitation  
Precipitation 0.03 in - - ()
Sea Level Pressure  
Sea Level Pressure 29.78 in    
Wind  
Wind Speed 12 mph (West)    
Max Wind Speed 29 mph    
Max Gust Speed 36 mph    
Visibility 10 miles    
Events Rain    
Averages and records for this station are not official NWS values.
T = Trace of Precipitation, MM = Missing Value Source: NWS Daily Summary

Daily Weather History Graph

Daily Weather History Graph

Search for Another Location

Airport:

Trip Planner

Search our weather history database for the weather conditions in past years. The results will help you decide how hot, cold, wet, or windy it might be!

Date:

Astronomy

Jun. 12, 2013 Rise Set
Actual Time 5:41 AM CDT 8:52 PM CDT
Civil Twilight 5:06 AM CDT 9:26 PM CDT
Nautical Twilight 4:23 AM CDT 10:10 PM CDT
Astronomical Twilight 3:30 AM CDT 11:03 PM CDT
Moon 9:23 AM CDT (6/12) 11:25 PM CDT (6/12)
Length of Visible Light 16h 19m
Length of Day
15h 11m
Waxing Crescent, 14% of the Moon is Illuminated
Jun 12
Waxing Crescent
Jun 16
First Quarter
Jun 23
Full
Jun 29
Last Quarter
Jul 8
New

Hourly Weather History & Observations

Time (CDT) Temp. Heat Index Dew Point Humidity Pressure Visibility Wind Dir Wind Speed Gust Speed Precip Events Conditions
12:15 AM 75.2 °F - 68.9 °F 81% 29.80 in 10.0 mi SE 9.2 mph - N/A   Clear
12:35 AM 75.0 °F - 68.9 °F 81% 29.79 in 10.0 mi SSE 10.4 mph - N/A   Clear
12:55 AM 75.2 °F - 68.0 °F 78% 29.79 in 10.0 mi SE 12.7 mph - N/A   Clear
1:15 AM 75.2 °F - 66.2 °F 73% 29.80 in 10.0 mi ESE 8.1 mph - N/A   Clear
1:35 AM 73.9 °F - 67.5 °F 80% 29.80 in 10.0 mi East 6.9 mph - N/A   Clear
1:55 AM 73.4 °F - 68.0 °F 83% 29.79 in 10.0 mi ESE 6.9 mph - N/A   Clear
2:15 AM 73.6 °F - 68.0 °F 83% 29.79 in 10.0 mi ESE 8.1 mph - N/A   Clear
2:35 AM 73.4 °F - 68.0 °F 83% 29.77 in 10.0 mi ESE 10.4 mph - N/A   Clear
2:55 AM 73.4 °F - 67.1 °F 81% 29.75 in 10.0 mi SE 9.2 mph - N/A   Clear
3:15 AM 73.4 °F - 66.2 °F 78% 29.75 in 10.0 mi SE 9.2 mph - N/A   Clear
3:35 AM 72.9 °F - 66.2 °F 80% 29.79 in 10.0 mi SSE 3.5 mph - N/A   Scattered Clouds
3:55 AM 72.7 °F - 65.7 °F 79% 29.79 in 10.0 mi SE 10.4 mph - 0.01 in Rain Rain
4:15 AM 72.5 °F - 65.7 °F 79% 29.79 in 10.0 mi SE 8.1 mph - 0.01 in Rain Light Rain
4:35 AM 71.8 °F - 65.8 °F 81% 29.81 in 10.0 mi ESE 5.8 mph - 0.01 in Rain Light Rain
4:55 AM 71.6 °F - 66.4 °F 84% 29.80 in 10.0 mi ESE 6.9 mph - 0.02 in Rain Light Rain
5:15 AM 71.2 °F - 66.4 °F 85% 29.80 in 10.0 mi ESE 8.1 mph - N/A   Clear
5:35 AM 71.2 °F - 66.4 °F 85% 29.80 in 10.0 mi SE 6.9 mph - N/A   Clear
5:55 AM 71.2 °F - 66.4 °F 85% 29.79 in 10.0 mi ESE 9.2 mph - N/A   Clear
6:15 AM 71.6 °F - 66.6 °F 84% 29.79 in 10.0 mi SE 11.5 mph - N/A   Clear
6:35 AM 70.9 °F - 66.6 °F 86% 29.68 in 10.0 mi ESE 21.9 mph 26.5 mph N/A   Clear
6:55 AM 71.8 °F - 66.4 °F 83% 29.70 in 10.0 mi ESE 13.8 mph 24.2 mph N/A   Clear
7:15 AM 72.9 °F - 67.1 °F 82% 29.77 in 10.0 mi Calm Calm - N/A   Clear
7:35 AM 72.9 °F - 67.5 °F 83% 29.76 in 10.0 mi SSW 3.5 mph - N/A   Clear
7:55 AM 73.4 °F - 67.5 °F 82% 29.74 in 10.0 mi SSE 9.2 mph - N/A   Clear
8:15 AM 74.1 °F - 67.6 °F 80% 29.74 in 10.0 mi SSE 11.5 mph - N/A   Clear
8:35 AM 75.0 °F - 68.5 °F 80% 29.73 in 10.0 mi SSE 12.7 mph - N/A   Clear
8:55 AM 75.9 °F - 68.7 °F 78% 29.72 in 10.0 mi SSE 17.3 mph - N/A   Clear
9:15 AM 77.2 °F - 68.9 °F 76% 29.72 in 10.0 mi SSE 17.3 mph - N/A   Clear
9:35 AM 77.9 °F - 69.1 °F 74% 29.72 in 10.0 mi South 15.0 mph - N/A   Clear
9:55 AM 78.6 °F - 69.4 °F 73% 29.71 in 10.0 mi South 13.8 mph - N/A   Clear
10:15 AM 79.9 °F - 69.6 °F 71% 29.71 in 10.0 mi South 18.4 mph - N/A   Clear
10:35 AM 81.0 °F 84.6 °F 70.2 °F 70% 29.71 in 10.0 mi SSW 15.0 mph - N/A   Scattered Clouds
10:55 AM 82.4 °F 86.3 °F 69.8 °F 66% 29.72 in 10.0 mi SW 12.7 mph 17.3 mph N/A   Scattered Clouds
11:15 AM 83.8 °F 87.5 °F 69.3 °F 61% 29.71 in 10.0 mi WSW 13.8 mph - N/A   Scattered Clouds
11:35 AM 83.7 °F 87.0 °F 68.5 °F 60% 29.72 in 10.0 mi West 11.5 mph 17.3 mph N/A   Mostly Cloudy
11:55 AM 84.0 °F 86.8 °F 67.3 °F 57% 29.72 in 10.0 mi West 16.1 mph 20.7 mph N/A   Overcast
12:15 PM 84.6 °F 87.6 °F 67.8 °F 57% 29.73 in 10.0 mi West 12.7 mph 19.6 mph N/A   Overcast
12:35 PM 84.9 °F 88.2 °F 68.2 °F 57% 29.73 in 10.0 mi WNW 10.4 mph 16.1 mph N/A   Overcast
12:55 PM 86.7 °F 90.3 °F 68.4 °F 54% 29.73 in 10.0 mi West 12.7 mph - N/A   Scattered Clouds
1:15 PM 86.5 °F 90.7 °F 69.3 °F 56% 29.73 in 10.0 mi NW 9.2 mph - N/A   Scattered Clouds
1:35 PM 87.1 °F 91.6 °F 69.4 °F 56% 29.73 in 10.0 mi NW 10.4 mph 18.4 mph N/A   Mostly Cloudy
1:55 PM 86.9 °F 91.0 °F 68.9 °F 55% 29.73 in 10.0 mi WNW 11.5 mph 16.1 mph N/A   Mostly Cloudy
2:15 PM 88.5 °F 91.6 °F 67.3 °F 49% 29.73 in 10.0 mi WNW 16.1 mph 19.6 mph N/A   Scattered Clouds
2:35 PM 88.2 °F 90.9 °F 66.7 °F 49% 29.73 in 10.0 mi West 13.8 mph - N/A   Scattered Clouds
2:55 PM 88.9 °F 91.4 °F 66.6 °F 47% 29.73 in 10.0 mi West 15.0 mph 20.7 mph N/A   Mostly Cloudy
3:15 PM 89.4 °F 92.3 °F 66.7 °F 47% 29.73 in 7.0 mi NW 11.5 mph - N/A   Mostly Cloudy
3:35 PM 87.8 °F 91.4 °F 68.0 °F 52% 29.74 in 10.0 mi WNW 19.6 mph 27.6 mph N/A   Mostly Cloudy
3:55 PM 87.4 °F 89.1 °F 64.8 °F 47% 29.74 in 10.0 mi NW 18.4 mph 26.5 mph N/A   Scattered Clouds
4:15 PM 87.1 °F 88.3 °F 63.9 °F 46% 29.75 in 10.0 mi NW 18.4 mph 24.2 mph N/A   Scattered Clouds
4:35 PM 85.3 °F 87.1 °F 65.1 °F 51% 29.74 in 10.0 mi NW 17.3 mph 25.3 mph N/A   Scattered Clouds
4:55 PM 84.7 °F 86.3 °F 64.8 °F 51% 29.74 in 10.0 mi NW 18.4 mph 23.0 mph N/A   Scattered Clouds
5:15 PM 83.3 °F 84.6 °F 64.2 °F 52% 29.75 in 10.0 mi NW 19.6 mph 24.2 mph N/A   Mostly Cloudy
5:35 PM 81.9 °F 83.5 °F 64.6 °F 56% 29.75 in 10.0 mi WNW 23.0 mph 31.1 mph N/A   Scattered Clouds
5:55 PM 80.6 °F 82.0 °F 63.5 °F 56% 29.76 in 10.0 mi NW 19.6 mph 27.6 mph N/A   Clear
6:15 PM 79.3 °F - 62.2 °F 56% 29.77 in 10.0 mi NW 21.9 mph 28.8 mph N/A   Clear
6:35 PM 78.3 °F - 60.8 °F 55% 29.78 in 10.0 mi NW 21.9 mph 31.1 mph N/A   Scattered Clouds
6:55 PM 76.8 °F - 59.9 °F 56% 29.81 in 10.0 mi WNW 26.5 mph 32.2 mph N/A   Mostly Cloudy
7:15 PM 74.3 °F - 61.3 °F 64% 29.82 in 10.0 mi NW 26.5 mph 32.2 mph N/A   Overcast
7:35 PM 69.8 °F - 59.0 °F 68% 29.84 in 10.0 mi NNW 28.8 mph 35.7 mph N/A   Overcast
7:55 PM 68.5 °F - 57.4 °F 67% 29.85 in 10.0 mi NNW 27.6 mph 33.4 mph N/A   Overcast
8:15 PM 67.5 °F - 56.7 °F 68% 29.86 in 10.0 mi NNW 21.9 mph 33.4 mph N/A   Scattered Clouds
8:35 PM 66.4 °F - 56.5 °F 70% 29.86 in 10.0 mi NW 20.7 mph 27.6 mph N/A   Clear
8:55 PM 65.7 °F - 56.5 °F 72% 29.87 in 10.0 mi NW 16.1 mph 23.0 mph N/A   Mostly Cloudy
9:15 PM 65.8 °F - 56.3 °F 71% 29.87 in 10.0 mi NW 17.3 mph 27.6 mph N/A   Overcast
9:35 PM 65.8 °F - 56.1 °F 71% 29.88 in 10.0 mi NW 16.1 mph 21.9 mph N/A   Overcast
9:55 PM 65.5 °F - 55.9 °F 71% 29.89 in 10.0 mi NW 16.1 mph 24.2 mph N/A   Overcast
10:15 PM 65.3 °F - 55.2 °F 70% 29.90 in 10.0 mi NW 20.7 mph 27.6 mph N/A   Overcast
10:35 PM 65.3 °F - 54.7 °F 68% 29.91 in 10.0 mi NW 17.3 mph 23.0 mph N/A   Overcast
10:55 PM 65.3 °F - 54.1 °F 67% 29.91 in 10.0 mi NW 18.4 mph 25.3 mph N/A   Overcast
11:15 PM 65.3 °F - 53.1 °F 65% 29.92 in 10.0 mi NNW 21.9 mph 27.6 mph N/A   Overcast
11:35 PM 65.3 °F - 51.8 °F 62% 29.92 in 10.0 mi NNW 19.6 mph 26.5 mph N/A   Mostly Cloudy
11:55 PM 65.3 °F - 51.1 °F 60% 29.92 in 10.0 mi NNW 19.6 mph 25.3 mph N/A   Clear